Погода в Караулбазаре

Узбекистан     39°29′59″N   64°47′27″E
темп.,
°C
ветер,
м/с
пор.,
м/с
влажн.,
%
обл.,
%
осадки,
мм/ч
давл.,
гПа
погр.,
м
1 марта, пн
пн123:00+9всв342585 0.0 101923
02:00+8юв45360 0.0 101848
05:00+7юв56370 0.0 101856
08:00+6юв45420 0.0 101876
11:00+13ю812260 0.0 1018780
14:00+18ююз911190 0.0 10171228
17:00+18зюз57170 0.0 10161199
20:00+14зсз342123 0.0 101924
2 марта, вт
вт223:00+12ссз343351 0.0 102025
02:00+10ссв443917 0.0 102028
05:00+10ссв453958 0.0 102036
08:00+10ссв3437100 0.0 102129
11:00+14ссз5528100 0.0 1022459
14:00+16ссз442269 0.0 1021827
17:00+17с552046 0.0 10201422
20:00+13с59310 0.0 1022217
3 марта, ср
ср323:00+11с593828 0.0 1023199
02:00+9с5744100 0.0 1023228
05:00+8с575098 0.0 1023175
08:00+8ссз575598 0.0 1023162
11:00+12ссз343995 0.0 1023488
14:00+14сз333458 0.0 10211004
17:00+15ссз223029 0.0 10191126
20:00+13всв12360 0.0 101925
4 марта, чт
чт423:00+11всв22410 0.0 101922
02:00+10всв23430 0.0 101722
05:00+9в34430 0.0 101723
08:00+10юв4543100 0.0 101772
11:00+14ююв3348100 0.2 1017168
14:00+18юз573326 0.0 10171147
17:00+20зюз682913 0.1 10172394
20:00+13ссз1013383 0.0 1021685
5 марта, пт
пт523:00+10сз796315 0.0 1024551
02:00+7ссз5680100 2.3 1026609
05:00+7с237583 2.8 1028250
08:00+6св36660 0.0 1029408
11:00+10всв45430 0.0 1027865
14:00+13св33290 0.0 10231204
17:00+14св442520 0.0 10201009
20:00+12всв794984 0.0 1018511